Tracking 19720 objects as of 27-Jun-2019
HD Live streaming from Space Station
objects crossing your sky now

COSMOS 637

Track COSMOS 637 now!
COSMOS 637 is classified as:


NORAD ID: 7229
Int'l Code: 1974-017A
Perigee: 35,470.3 km
Apogee: 35,833.1 km
Inclination: 7.1 °
Period: 1,428.8 minutes
Semi major axis: 42022 km
RCS: 2.5118 m2 (large)
Launch date: March 26, 1974
Source: Commonwealth of Independent States (former USSR) (CIS)
Launch site: TYURATAM MISSILE AND SPACE COMPLEX (TTMTR)
aabbcc
Your satellite tracking list
Your tracking list is empty




NASA's NSSDC Master Catalog

Two Line Element Set (TLE):
1  7229U 74017A   19177.00002817  .00000128  00000-0  00000+0 0  9992
2  7229   7.1112 298.7178 0043171 352.6110  16.6706  1.00780608 96517
Source of the keplerian elements: AFSPC